Location: Hertford
(51.8000°N, 0.0667°W)
Time: 12:28:01
(UTC+00:00)

Okean 1-7 Rocket - Pass Details

Date: 18 September 2020
Orbit: 616 x 649 km, 82.5° (Epoch: 23 October)

Event Time Altitude Azimuth Distance (km) Brightness Sun altitude
Rises 20:40:18 0° 352° (N) 2,981 7.7 -23.0°
Reaches altitude 10° 20:42:36 10° 356° (N) 2,066 6.7 -23.3°
Enters shadow 20:46:41 54° 51° (NE) 796 3.9 -23.8°
